Location: Sihaung
(22.8641°N, 94.0549°E)
Time: 18:06:39
(UTC+00:00)

CENTAUR R/B - Pass Details

Date: 03 March 2021
Orbit: 742 x 1446 km, 63.4° (Epoch: 31 March)

Event Time Altitude Azimuth Distance (km) Brightness Sun altitude
Rises 13:19:57 0° 186° (S) 3,190 5.3 -21.9°
Reaches altitude 10° 13:22:22 10° 177° (S) 2,305 4.4 -22.5°
Enters shadow 13:24:47 25° 158° (SSE) 1,558 3.3 -23.1°
